Terug naar catalogus

STARLINK-11478

ActiefCommunicatieVLEO
NORAD 62557·PAYLOAD·🇺🇸 United States

Gelanceerd Jan 10, 2025 vanaf Cape Canaveral Space Force Station

Loading…

Volgende Passages (komende 24 uur)

TLE

VersSource: CelesTrak SupGP

Epoch: Sep 15, 2026, 02:14 UTC

1 62557C 25006D   26258.09354167  .00018951  00000+0  14712-3 0  2585
2 62557  43.0007  78.2404 0001756 270.5776 340.7944 15.70840333    15

Volg STARLINK-11478 in realtime met AllMySat

Download on the App Store